{"data":{"norad_id":59948,"intl_designator":"2024-107D","name":"STARLINK-11123 [DTC]","alt_names":[],"object_type":"PAYLOAD","status":"ACTIVE","operator":null,"country":"US","launch_date":"2024-06-05","launch_site_code":"AFETR","launch_vehicle":null,"mission":null,"orbit_class":"UNKNOWN","rcs_meters":null,"size_class":null,"mass_kg":null,"dimensions":null,"purposes":["comms"],"wikipedia_slug":null,"has_3d_model":false,"image_url":null,"decayed_at":null,"tle_current":{"epoch":"2026-09-21T11:24:27.673920Z","epoch_age_seconds":93380,"freshness":"FRESH","line1":"1 59948U 24107D   26264.47532030 -.00002984  00000+0 -19782-4 0  9998","line2":"2 59948  53.1587   6.3094 0001004  41.9661 318.1434 15.69705722132958","mean_motion":15.69705722,"eccentricity":0.0001004,"inclination_deg":53.1587,"raan_deg":6.3094,"arg_perigee_deg":41.9661,"mean_anomaly_deg":318.1434,"bstar":-1.9782e-5,"rev_number":13295,"period_min":91.7369402314,"perigee_km":359.06250969641,"apogee_km":360.41547519569,"semimajor_km":6737.8759924461,"source":"CELESTRAK","updated_at":"2026-09-22T09:00:49.116067Z"}}}